GW6849 Weather Reports


Display with metric or nautical units.
time (UTC)temp
F
wind
direction
speed
MPH
gust
MPH
rain 1hr
in
rain 24hr
in
rain mn
in
humidity
%
barometer
mb
20260507064318 48 194 0.0 0.0 0.00 0.00 0.00 94 1021.9
20260507063815 48 192 0.0 0.0 0.00 0.00 0.00 95 1021.8
20260507063312 48 183 0.0 0.0 0.00 0.00 0.00 95 1021.9
20260507062809 48 194 0.0 0.0 0.00 0.00 0.00 95 1021.8
20260507062306 48 192 0.0 0.0 0.00 0.00 0.00 94 1021.9
20260507061804 48 194 0.0 0.0 0.00 0.00 0.00 93 1021.9
20260507061301 49 192 0.0 0.0 0.00 0.00 0.00 94 1021.9
20260507060800 49 192 0.0 0.0 0.00 0.00 0.00 93 1021.9
20260507060256 49 192 0.0 0.0 0.00 0.00 0.00 93 1021.7
20260507055752 49 192 0.0 0.0 0.00 0.00 0.00 92 1021.7
20260507055248 49 192 0.0 0.0 0.00 0.00 0.00 93 1021.8
20260507054744 49 194 0.0 0.0 0.00 0.00 0.00 92 1022.0
20260507054241 49 194 0.0 0.0 0.00 0.00 0.00 94 1021.7
20260507053738 49 192 0.0 0.0 0.00 0.00 0.00 92 1021.7
20260507053236 49 194 0.0 0.0 0.00 0.00 0.00 92 1021.8
20260507052735 49 194 0.0 0.0 0.00 0.00 0.00 93 1021.6
20260507052230 49 194 0.0 0.0 0.00 0.00 0.00 92 1021.8
20260507051729 50 197 0.0 0.0 0.00 0.00 0.00 93 1021.8
20260507051225 50 196 0.0 0.0 0.00 0.00 0.00 93 1021.7
20260507050722 50 196 0.0 0.0 0.00 0.00 0.00 93 1021.6
20260507050219 50 194 0.0 0.0 0.00 0.00 0.00 92 1021.7
20260507045716 50 192 0.0 0.0 0.00 0.00 0.00 92 1021.5
20260507045212 50 197 0.0 0.0 0.00 0.00 0.00 92 1021.5
20260507044709 50 197 0.0 0.0 0.00 0.00 0.00 92 1021.6
20260507044206 51 197 0.0 0.0 0.00 0.00 0.00 92 1021.4
20260507043702 51 197 0.0 0.0 0.00 0.00 0.00 92 1021.5
20260507043159 51 197 0.0 0.0 0.00 0.00 0.00 91 1021.5
20260507042655 51 197 0.0 0.0 0.00 0.00 0.00 90 1021.3
20260507042150 53 197 0.0 0.0 0.00 0.00 0.00 89 1021.2
20260507041648 53 195 0.0 0.0 0.00 0.00 0.00 86 1021.4
20260507041144 53 197 0.0 0.0 0.00 0.00 0.00 89 1021.3
20260507040641 52 196 0.0 0.0 0.00 0.00 0.00 90 1021.3
20260507040138 53 197 0.0 0.0 0.00 0.00 0.00 88 1021.1
20260507035633 54 197 0.0 0.0 0.00 0.00 0.00 86 1021.1
20260507035130 53 196 0.0 0.0 0.00 0.00 0.00 86 1021.0
20260507034627 54 196 0.0 0.0 0.00 0.00 0.00 88 1021.1
20260507034124 54 196 0.0 0.0 0.00 0.00 0.00 88 1020.7
20260507033623 54 194 0.0 0.0 0.00 0.00 0.00 87 1021.0
20260507033119 55 194 0.0 0.0 0.00 0.00 0.00 87 1021.0
20260507032617 55 197 0.0 0.0 0.00 0.00 0.00 87 1021.0
20260507032112 55 197 0.0 0.0 0.00 0.00 0.00 86 1020.8
20260507031609 56 197 0.0 0.0 0.00 0.00 0.00 85 1020.7
20260507031106 56 196 0.0 0.0 0.00 0.00 0.00 85 1020.6
20260507030603 57 197 0.0 0.0 0.00 0.00 0.00 83 1020.6
20260507030101 57 196 0.0 0.0 0.00 0.00 0.00 84 1020.6
20260507025558 57 197 0.0 0.0 0.00 0.00 0.00 82 1020.7
20260507025055 58 196 0.0 0.0 0.00 0.00 0.00 81 1020.6
20260507024553 59 197 0.0 0.0 0.00 0.00 0.00 79 1020.7
20260507024049 59 195 0.0 0.0 0.00 0.00 0.00 78 1020.5
20260507023545 59 196 0.0 0.0 0.00 0.00 0.00 78 1020.4
20260507023043 60 196 0.0 0.0 0.00 0.00 0.00 78 1020.4
20260507022539 60 196 0.0 0.0 0.00 0.00 0.00 77 1020.5
20260507022035 61 196 0.0 0.0 0.00 0.00 0.00 75 1020.6
20260507021531 61 196 0.0 0.0 0.00 0.00 0.00 73 1020.6
20260507021028 62 173 0.0 0.0 0.00 0.00 0.00 71 1020.4
20260507020525 62 158 0.0 0.0 0.00 0.00 0.00 70 1020.3
20260507020021 62 158 0.0 0.0 0.00 0.00 0.00 71 1020.4
20260507015520 62 232 0.0 1.0 0.00 0.00 0.00 70 1020.4
20260507015017 64 300 0.0 0.0 0.00 0.00 0.00 67 1020.4
20260507014513 63 299 0.0 1.0 0.00 0.00 0.00 68 1020.5
20260507014009 63 261 0.0 0.0 0.00 0.00 0.00 68 1020.4
20260507013506 63 291 0.0 0.0 0.00 0.00 0.00 68 1020.7
20260507013004 64 196 1.0 2.0 0.00 0.00 0.00 67 1020.6
20260507012500 65 240 3.0 3.0 0.00 0.00 0.00 65 1020.6
20260507011957 64 264 2.0 2.0 0.00 0.00 0.00 65 1020.5
20260507011454 65 277 2.0 3.0 0.00 0.00 0.00 63 1020.5
20260507010949 66 245 0.0 1.0 0.00 0.00 0.00 63 1020.6
20260507010444 67 236 3.0 3.0 0.00 0.00 0.00 62 1020.7
20260507005941 67 264 2.0 3.0 0.00 0.00 0.00 62 1020.6
20260507005439 67 253 2.0 3.0 0.00 0.00 0.00 60 1020.4
20260507004935 66 152 1.0 2.0 0.00 0.00 0.00 63 1020.4
20260507004432 66 267 1.0 2.0 0.00 0.00 0.00 63 1020.5
20260507003929 67 279 2.0 3.0 0.00 0.00 0.00 62 1020.4
20260507003424 69 326 2.0 3.0 0.00 0.00 0.00 62 1020.5
20260507002920 67 228 0.0 0.0 0.00 0.00 0.00 57 1020.4
20260507002416 67 297 2.0 3.0 0.00 0.00 0.00 60 1020.4
20260507001913 68 318 3.0 3.0 0.00 0.00 0.00 58 1020.2
20260507001410 68 356 2.0 2.0 0.00 0.00 0.00 59 1020.5
20260507000908 67 341 3.0 4.0 0.00 0.00 0.00 61 1020.4
20260507000405 69 336 3.0 4.0 0.00 0.00 0.00 58 1020.4
20260506235859 68 350 2.0 2.0 0.00 0.00 0.00 59 1020.4
20260506235356 68 337 1.0 1.0 0.00 0.00 0.00 60 1020.3
20260506234852 69 83 2.0 3.0 0.00 0.00 0.00 59 1020.3
20260506234349 69 356 3.0 4.0 0.00 0.00 0.00 59 1020.2
20260506233847 70 65 2.0 4.0 0.00 0.00 0.00 60 1020.2
20260506233343 69 2 0.0 1.0 0.00 0.00 0.00 58 1020.3
20260506232840 70 344 4.0 7.0 0.00 0.00 0.00 58 1020.2
20260506232336 68 347 3.0 4.0 0.00 0.00 0.00 60 1020.2
20260506231832 68 303 1.0 2.0 0.00 0.00 0.00 61 1020.2
20260506231330 68 322 4.0 6.0 0.00 0.00 0.00 61 1020.4
20260506230827 68 285 0.0 0.0 0.00 0.00 0.00 59 1020.3
20260506230324 67 294 0.0 0.0 0.00 0.00 0.00 61 1020.4
20260506225820 70 294 2.0 3.0 0.00 0.00 0.00 59 1020.4
20260506225318 69 4 3.0 4.0 0.00 0.00 0.00 63 1020.2
20260506224814 68 310 3.0 4.0 0.00 0.00 0.00 62 1020.3
20260506224312 69 321 1.0 1.0 0.00 0.00 0.00 61 1020.4
20260506223808 69 12 2.0 3.0 0.00 0.00 0.00 61 1020.5
20260506223303 68 357 1.0 2.0 0.00 0.00 0.00 62 1020.8
20260506222800 68 319 4.0 7.0 0.00 0.00 0.00 63 1020.6
20260506222256 69 340 4.0 4.0 0.00 0.00 0.00 62 1020.7
20260506221754 71 322 4.0 4.0 0.00 0.00 0.00 58 1020.7
20260506221252 69 249 2.0 3.0 0.00 0.00 0.00 60 1020.6
20260506220749 70 358 2.0 3.0 0.00 0.00 0.00 60 1020.5
20260506220243 72 18 0.0 0.0 0.00 0.00 0.00 56 1020.7
20260506215741 70 39 1.0 1.0 0.00 0.00 0.00 60 1020.7
20260506215236 70 325 3.0 6.0 0.00 0.00 0.00 59 1020.8
20260506214733 70 307 4.0 4.0 0.00 0.00 0.00 59 1020.6
20260506214230 69 335 4.0 6.0 0.00 0.00 0.00 61 1020.9
20260506213728 70 282 2.0 3.0 0.00 0.00 0.00 58 1020.6
20260506213225 71 331 2.0 2.0 0.00 0.00 0.00 55 1020.7
20260506212722 69 333 4.0 4.0 0.00 0.00 0.00 60 1020.6
20260506212218 69 47 0.0 1.0 0.00 0.00 0.00 58 1020.9
20260506211714 70 327 4.0 6.0 0.00 0.00 0.00 58 1021.0
20260506211210 68 168 2.0 2.0 0.00 0.00 0.00 62 1020.9
20260506210707 69 278 0.0 1.0 0.00 0.00 0.00 62 1020.8
20260506210204 68 306 1.0 2.0 0.00 0.00 0.00 62 1020.9
20260506205701 68 105 3.0 3.0 0.00 0.00 0.00 63 1020.9
20260506205156 68 328 2.0 3.0 0.00 0.00 0.00 65 1020.9
20260506204654 68 350 4.0 7.0 0.00 0.00 0.00 62 1020.9
20260506204150 69 351 0.0 0.0 0.00 0.00 0.00 62 1021.1
20260506203648 67 340 2.0 3.0 0.00 0.00 0.00 64 1021.0
20260506203145 67 301 2.0 4.0 0.00 0.00 0.00 66 1021.1
20260506202643 65 305 0.0 1.0 0.00 0.00 0.00 66 1021.0
20260506202139 66 55 3.0 3.0 0.00 0.00 0.00 67 1021.4
20260506201636 68 18 2.0 3.0 0.00 0.00 0.00 62 1021.1
20260506201133 69 303 1.0 2.0 0.00 0.00 0.00 58 1021.1
20260506200629 66 306 3.0 3.0 0.00 0.00 0.00 63 1021.1
20260506200126 67 274 0.0 0.0 0.00 0.00 0.00 62 1021.1
20260506195623 67 321 5.0 7.0 0.00 0.00 0.00 62 1021.3
20260506195119 66 250 0.0 1.0 0.00 0.00 0.00 63 1021.1
20260506194617 68 285 0.0 0.0 0.00 0.00 0.00 61 1021.4
20260506194113 66 275 1.0 1.0 0.00 0.00 0.00 60 1021.2
20260506193611 68 59 0.0 0.0 0.00 0.00 0.00 63 1021.1
20260506193108 66 284 1.0 2.0 0.00 0.00 0.00 61 1021.2
20260506192604 66 264 2.0 2.0 0.00 0.00 0.00 62 1021.2
20260506192100 66 304 3.0 4.0 0.00 0.00 0.00 61 1021.0
20260506191557 66 252 2.0 3.0 0.00 0.00 0.00 64 1021.0
20260506191053 64 219 3.0 4.0 0.00 0.00 0.00 65 1021.0
20260506190550 63 122 0.0 1.0 0.00 0.00 0.00 69 1021.3
20260506190047 64 224 4.0 6.0 0.00 0.00 0.00 66 1021.2
20260506185545 64 244 2.0 2.0 0.00 0.00 0.00 66 1021.1
20260506185041 66 321 4.0 6.0 0.00 0.00 0.00 64 1021.2
20260506184539 64 274 3.0 3.0 0.00 0.00 0.00 66 1021.2
20260506184036 65 251 4.0 6.0 0.00 0.00 0.00 64 1021.3
20260506183531 64 314 2.0 3.0 0.00 0.00 0.00 69 1021.3
20260506183028 65 292 1.0 2.0 0.00 0.00 0.00 63 1021.4
20260506182526 65 292 2.0 3.0 0.00 0.00 0.00 68 1021.3
20260506182023 64 309 6.0 8.0 0.00 0.00 0.00 67 1021.3
20260506181521 63 294 1.0 1.0 0.00 0.00 0.00 68 1021.3
20260506181017 65 313 1.0 1.0 0.00 0.00 0.00 64 1021.2
20260506180514 64 243 2.0 3.0 0.00 0.00 0.00 65 1021.3
20260506180010 65 207 0.0 0.0 0.00 0.00 0.00 67 1021.4
20260506175507 62 263 1.0 1.0 0.00 0.00 0.00 69 1021.3
20260506175003 62 300 3.0 4.0 0.00 0.00 0.00 71 1021.2
20260506174502 63 263 3.0 3.0 0.00 0.00 0.00 69 1021.1
20260506173958 64 258 4.0 6.0 0.00 0.00 0.00 66 1021.0
20260506173456 61 105 2.0 2.0 0.00 0.00 0.00 75 1020.9
20260506172952 62 325 1.0 2.0 0.00 0.00 0.00 74 1021.1
20260506172450 63 299 4.0 6.0 0.00 0.00 0.00 70 1021.1
20260506171946 60 241 0.0 0.0 0.00 0.00 0.00 73 1021.2
20260506171443 60 142 2.0 3.0 0.00 0.00 0.00 75 1021.2
20260506170941 60 244 0.0 0.0 0.00 0.00 0.00 75 1021.4
20260506170437 59 319 3.0 4.0 0.00 0.00 0.00 75 1021.4
20260506165936 60 253 1.0 1.0 0.00 0.00 0.00 78 1021.2
20260506165434 61 301 2.0 3.0 0.00 0.00 0.00 73 1021.2
20260506164930 60 259 2.0 2.0 0.00 0.00 0.00 76 1021.1
20260506164427 60 305 1.0 2.0 0.00 0.00 0.00 78 1021.2
20260506163925 58 343 0.0 0.0 0.00 0.00 0.00 80 1021.4
20260506163425 58 34 0.0 0.0 0.00 0.00 0.00 82 1021.4
20260506162920 57 18 0.0 0.0 0.00 0.00 0.00 82 1021.4
20260506162419 57 247 0.0 0.0 0.00 0.00 0.00 81 1021.5
20260506161916 58 291 2.0 3.0 0.00 0.00 0.00 78 1021.4
20260506161414 59 307 0.0 0.0 0.00 0.00 0.00 78 1021.5
20260506160911 57 265 0.0 0.0 0.00 0.00 0.00 82 1021.4
20260506160408 54 242 1.0 2.0 0.00 0.00 0.00 86 1021.1
20260506155906 53 164 0.0 0.0 0.00 0.00 0.00 89 1021.2
20260506155402 53 145 3.0 3.0 0.00 0.00 0.00 89 1021.1
20260506153519 54 312 1.0 2.0 0.00 0.00 0.00 90 1020.9
20260506153017 54 299 0.0 0.0 0.00 0.00 0.00 90 1021.3
20260506152513 53 299 0.0 0.0 0.00 0.00 0.00 91 1021.3
20260506152012 53 299 0.0 0.0 0.00 0.00 0.00 92 1021.2
20260506151509 53 299 0.0 0.0 0.00 0.00 0.00 92 1021.3
20260506151006 53 299 0.0 0.0 0.00 0.00 0.00 92 1021.4
20260506150502 52 299 0.0 0.0 0.00 0.00 0.00 93 1021.4
20260506145959 52 299 1.0 2.0 0.00 0.00 0.00 94 1021.3
20260506145455 52 302 2.0 2.0 0.00 0.00 0.00 94 1021.3
20260506144953 52 301 0.0 0.0 0.00 0.00 0.00 94 1021.4
20260506144450 52 302 0.0 0.0 0.00 0.00 0.00 94 1021.4
20260506143948 52 162 0.0 0.0 0.00 0.00 0.00 94 1021.5
20260506143444 52 162 0.0 0.0 0.00 0.00 0.00 95 1021.2
20260506142943 52 192 1.0 1.0 0.00 0.00 0.00 94 1021.2
20260506142440 52 183 0.0 0.0 0.00 0.00 0.00 95 1020.9
20260506141939 52 184 0.0 0.0 0.00 0.00 0.00 95 1020.9
20260506141436 52 183 0.0 0.0 0.00 0.00 0.00 95 1020.8
20260506140935 52 143 0.0 0.0 0.00 0.00 0.00 96 1020.7
20260506140431 51 127 0.0 0.0 0.00 0.00 0.00 96 1020.2
20260506135928 51 149 1.0 2.0 0.00 0.00 0.00 96 1020.4
20260506135425 51 158 0.0 0.0 0.00 0.00 0.00 97 1020.3
20260506134921 51 158 0.0 0.0 0.00 0.00 0.00 97 1020.2
20260506134417 51 143 0.0 0.0 0.00 0.00 0.00 97 1020.2
20260506133915 51 119 0.0 0.0 0.00 0.00 0.00 97 1020.3
20260506133411 51 119 0.0 0.0 0.00 0.00 0.00 97 1020.2
20260506132908 51 119 0.0 0.0 0.00 0.00 0.00 97 1020.2
20260506132405 51 119 0.0 0.0 0.00 0.00 0.00 97 1020.3
20260506131903 51 119 0.0 0.0 0.00 0.00 0.00 96 1020.3
20260506131359 51 114 0.0 0.0 0.00 0.00 0.00 96 1020.3
20260506130856 51 114 0.0 0.0 0.00 0.00 0.00 96 1020.1
20260506130352 51 354 0.0 0.0 0.00 0.00 0.00 96 1020.1
20260506125850 51 354 0.0 0.0 0.00 0.00 0.00 96 1020.0
20260506125349 51 354 0.0 0.0 0.00 0.00 0.00 96 1020.1
20260506124847 51 354 0.0 0.0 0.00 0.00 0.00 96 1020.0
20260506124343 51 353 0.0 0.0 0.00 0.00 0.00 96 1020.0
20260506123841 51 353 0.0 0.0 0.00 0.00 0.00 96 1019.9
20260506123339 51 353 0.0 0.0 0.00 0.00 0.00 96 1020.0
20260506122836 51 353 0.0 0.0 0.00 0.00 0.00 96 1020.0
20260506122333 51 353 0.0 0.0 0.00 0.00 0.00 96 1019.9
20260506121831 51 353 0.0 0.0 0.00 0.00 0.00 96 1020.2
20260506121328 51 353 0.0 0.0 0.00 0.00 0.00 96 1019.9
20260506120825 51 353 0.0 0.0 0.00 0.00 0.00 96 1020.0
20260506120323 51 353 0.0 0.0 0.00 0.00 0.00 96 1020.0
20260506115820 51 353 0.0 0.0 0.00 0.00 0.00 95 1019.8
20260506115318 51 353 0.0 0.0 0.00 0.00 0.00 96 1019.6
20260506114816 51 353 0.0 0.0 0.00 0.00 0.00 96 1019.9
20260506114313 51 353 0.0 0.0 0.00 0.00 0.00 96 1019.7
20260506113812 51 353 0.0 0.0 0.00 0.00 0.00 96 1019.8
20260506113309 51 353 0.0 0.0 0.00 0.00 0.00 96 1019.6
20260506112805 50 353 0.0 0.0 0.00 0.00 0.00 96 1019.5
20260506112305 50 353 0.0 0.0 0.00 0.00 0.00 96 1019.4
20260506111800 50 353 0.0 0.0 0.00 0.00 0.00 96 1019.5
20260506111258 50 353 0.0 0.0 0.00 0.00 0.00 95 1019.3
20260506110755 50 353 0.0 0.0 0.00 0.00 0.00 95 1019.4
20260506110252 50 353 0.0 0.0 0.00 0.00 0.00 96 1019.3
20260506105749 50 353 0.0 0.0 0.00 0.00 0.00 95 1019.2
20260506105246 50 353 0.0 0.0 0.00 0.00 0.00 96 1019.1
20260506104743 50 353 0.0 0.0 0.00 0.00 0.00 96 1019.1
20260506104241 50 353 0.0 0.0 0.00 0.00 0.00 96 1019.0
20260506103738 51 353 0.0 0.0 0.00 0.00 0.00 96 1018.8
20260506103235 51 353 0.0 0.0 0.00 0.00 0.00 96 1018.7
20260506102733 51 353 0.0 0.0 0.00 0.00 0.00 97 1018.8
20260506102231 50 353 0.0 0.0 0.00 0.00 0.00 97 1018.6
20260506101727 50 353 0.0 0.0 0.00 0.00 0.00 96 1018.8
20260506101224 50 353 0.0 0.0 0.00 0.00 0.00 96 1018.7
20260506100722 50 353 0.0 0.0 0.00 0.00 0.00 96 1018.6
20260506100220 50 353 0.0 0.0 0.00 0.00 0.00 97 1018.6
20260506095718 50 353 0.0 0.0 0.00 0.00 0.00 97 1018.7
20260506095214 50 353 0.0 0.0 0.00 0.00 0.00 97 1018.4
20260506094711 50 353 0.0 0.0 0.00 0.00 0.00 97 1018.3
20260506094209 49 353 0.0 0.0 0.00 0.00 0.00 97 1018.5
20260506093708 49 353 0.0 0.0 0.00 0.00 0.00 97 1018.5
20260506093204 49 353 0.0 0.0 0.00 0.00 0.00 97 1018.4
20260506092702 49 353 0.0 0.0 0.00 0.00 0.00 97 1018.4
20260506092200 49 353 0.0 0.0 0.00 0.00 0.00 96 1018.3
20260506091658 50 353 0.0 0.0 0.00 0.00 0.00 96 1018.2
20260506091155 50 353 0.0 0.0 0.00 0.00 0.00 96 1018.3
20260506090652 50 353 0.0 0.0 0.00 0.00 0.00 96 1018.3
20260506090149 50 353 0.0 0.0 0.00 0.00 0.00 96 1018.3
20260506085646 50 353 0.0 0.0 0.00 0.00 0.00 95 1018.2
20260506085142 50 353 0.0 0.0 0.00 0.00 0.00 95 1018.3
20260506084638 50 353 0.0 0.0 0.00 0.00 0.00 95 1018.2
20260506084136 50 353 0.0 0.0 0.00 0.00 0.00 96 1018.2
20260506083632 50 353 0.0 0.0 0.00 0.00 0.00 96 1018.2
20260506083130 50 353 0.0 0.0 0.00 0.00 0.00 96 1018.3
20260506082626 51 353 0.0 0.0 0.00 0.00 0.00 96 1018.2
20260506082122 51 353 0.0 0.0 0.00 0.00 0.00 96 1018.1
20260506081621 51 353 0.0 0.0 0.00 0.00 0.00 96 1018.2
20260506081118 51 353 0.0 0.0 0.00 0.00 0.00 96 1018.1
20260506080615 51 354 0.0 0.0 0.00 0.00 0.00 95 1018.1
20260506080112 51 354 0.0 0.0 0.00 0.00 0.00 95 1018.2
20260506073056 53 353 0.0 0.0 0.00 0.00 0.00 93 1018.1
20260506072552 53 353 0.0 0.0 0.00 0.00 0.00 93 1018.2
20260506072050 53 354 0.0 0.0 0.00 0.00 0.00 94 1018.1
20260506071548 53 354 0.0 0.0 0.00 0.00 0.00 94 1017.8
20260506071045 53 353 0.0 0.0 0.00 0.00 0.00 94 1018.0
20260506070542 53 353 0.0 0.0 0.00 0.00 0.00 94 1017.9